Regional Weather Roundup
Issued by NWS

Home | Current Version | Previous Version | Graphics & Text | Print | Product List | Glossary On
Versions: 1 2 3 4 5 6 7 8 9 10 11 12 13 14 15 16 17 18 19 20 21 22 23 24 25 26 27 28 29 30 31 32 33 34 35 36 37 38 39 40 41 42 43 44 45 46 47 48 49 50
000
ASUS45 KSLC 070710
RWRUT

UTAH REGIONAL WEATHER ROUNDUP
NATIONAL WEATHER SERVICE SALT LAKE CITY UT
100 AM MDT TUE JUL 07 2015

UTZ001>011-023>025-070800-

NORTHERN UTAH

CITY           SKY/WX    TMP DP  RH WIND       PRES   REMARKS
BRIGHAM CITY   MOCLDY    69  57  65 CALM      30.07S
HILL AFB       MOCLDY    73  53  50 S8        30.10S
LOGAN          CLOUDY    67  58  72 N3        30.09S
OGDEN          MOCLDY    74  53  48 CALM      30.07F
PROVO AIRPORT  MOCLDY    66  50  55 CALM      30.11F
SALT LAKE CITY MOCLDY    74  55  51 S10       30.06R
VERNAL         MOCLDY    66  51  58 W3        30.15S
WENDOVER       PTCLDY    72  52  49 SW6       30.08S
HEBER CITY     MOCLDY    59  50  72 CALM      30.17S
WEST JORDAN    MOCLDY    72  52  49 S14       30.10S

$$

UTZ012>022-026-027-070800-

SOUTHERN/CENTRAL UTAH

CITY           SKY/WX    TMP DP  RH WIND       PRES   REMARKS
BLANDING       PTCLDY    60  54  80 CALM      30.22F
BRYCE CANYON   CLOUDY    52  49  89 SW7       30.33S
CEDAR CITY     CLOUDY    61  50  67 E6        30.20R
DELTA          CLOUDY    68  51  53 MISG      30.13F
HANKSVILLE     CLOUDY    72  52  49 CALM      30.09S
MILFORD        CLOUDY    66  51  58 S9        30.15S
MOAB/CYNLANDS  MOCLDY    66  57  72 W7        30.06F
PRICE          PTCLDY    63  43  48 N6        30.17F
ST GEORGE      PTSUNNY   72  59  64 N3        30.04F
KANAB          PTCLDY    61  55  82 N6        30.22S

$$

REGIONAL REPORTS     COLORADO/ARIZONA

CITY           SKY/WX    TMP DP  RH WIND       PRES   REMARKS
CRAIG, CO      NOT AVBL
GRAND JUNCTION CLOUDY    66  55  67 NW3       30.10S
RIFLE          CLOUDY    63  57  81 S7        30.19S
MONTROSE       PTCLDY    65  48  54 S9        30.18F
CORTEZ         CLEAR     61  51  70 NE5       30.17F
PAGE, AZ       CLEAR     70  57  63 CALM      30.11R
GRAND CANYON   CLEAR     50  46  86 CALM      30.27F
KINGMAN        MOCLDY    74  54  49 SE10      30.08S
FLAGSTAFF      CLEAR     53  50  89 CALM      30.30S

$$

REGIONAL REPORTS    NEVADA/IDAHO/WYOMING

CITY           SKY/WX    TMP DP  RH WIND       PRES   REMARKS
LAS VEGAS, NV  CLOUDY    83  56  39 SW13      29.93S THUNDER
ELY            MOCLDY    60  44  55 S8        30.25S
ELKO           PTCLDY    65  45  48 CALM      30.13S
POCATELLO, ID  CLEAR     68  50  52 NE5       30.12S
BURLEY         PTCLDY    68  53  58 E6        30.07F
EVANSTON, WY   PTCLDY    56  48  74 E8        30.26S
ROCK SPRINGS   PTCLDY    55  51  86 CALM      30.25F
KEMMERER       PTCLDY    52  48  87 N6        30.30S

$$



USA.gov is the U.S. government's official web portal to all federal, state and local government web resources and services.